◎2004 DWの軌道と予報位置です



 天文年鑑2004年版(p236〜237)でカイパ−ベルト近くを動く巨大な天体(2897

8) アイキオンと (50000) クワオアを紹介しましたが,さらに巨大であると思わ

れる天体2004 DWが 2月17日にパロマ−で発見されました.発見等級は18.8等で

した.その標準等級は,アルベド係数g=0.15として, (28978)が 3.2等(直径78

0Km),(50000)が 2.6等(1030Km)であるのに比べ, 2004 DWは,さらに明るく

 2.2等で,天文年鑑と同じ方法でその直径を求めると1240Kmになります.この小

惑星の観測は,1951年から2003年末まで9回の衝で見つかっています.いずれの

衝でも,観測光度は,18.5等から18.8等くらいで,もっとも明るい光度は17.9等

がありました.次の軌道は,1951年から2004年2月22日までに行なわれた55個の

観測から計算されたものです.なお,この小惑星は,近年は,その遠日点近くを

運行中で,現在,18等級で観測できます.(天文ガイド4月号より)



No identification:

 

2004 DW                                                                     

Epoch 2004 July 14.0 TT = JDT 2453200.5                 MPC      

M 157.53721              (2000.0)            P               Q

n   0.00397408     Peri.   73.33468     +0.88939035     +0.29289318

a  39.4740179      Node   268.53704     -0.41783911     +0.83231517

e   0.2179048      Incl.   20.55527     +0.18545967     +0.47060073

P 248.01           H   2.2            G   0.15           U   1

Residuals in seconds of arc 

511108 261  0.0   0.0     020110 644  0.5-  0.1+    040218 673  0.3+  0.2-  

541123 261  0.0   0.0     020110 644  0.3-  0.2+    040218 673  0.1+  0.1-  

910207 261  0.0   0.2-    020203 608  0.4+  0.2-    040218 673  0.2+  0.0   

920113 260  0.1-  0.1+    020203 608  0.0   0.0     040219 A21  0.2-  0.1-  

921128 261  0.2+  0.2+    020203 608  0.3+  0.0     040219 620  0.2-  0.1-  

930323 261  0.0   0.2-    020208 644  0.2-  0.0     040219 620  0.1-  0.2-  

960407 261  0.1+  0.0     020208 644  0.3-  0.1+    040220 246  0.6+  0.3-  

001201 608  0.1-  0.2+    020208 644  0.1-  0.0     040220 246  0.2+  0.3+  

001201 608  0.0   0.1-    020219 644  0.4-  0.0     040220 246  0.3+  0.4+  

001201 608  0.2-  0.3-    020220 644  0.0   0.5+    040220 246  0.2+  0.0   

010119 608  0.2+  0.2+    020310 644  0.3-  0.1-    040220 246  0.1+  0.4+  

010119 608  0.5+  0.3+    031203 675  0.3+  0.4+    040222 850  0.3+  0.1+  

010128 608  0.2+  0.2-    040217 675  0.1+  0.1-    040222 333  0.3+  0.2-  

010128 608  0.1+  0.0     040217 675  0.1+  0.0     040222 850  0.4-  0.2-  

011224 608  0.2-  0.1+    040217 675  0.1+  0.0     040222 333  0.4+  0.1-  

011224 608  0.1+  0.2+    040218 493  0.1-  0.2-    040222 850  0.2-  0.3-  

011224 608  0.4-  0.2-    040218 493  0.1-  0.0     040222 333  1.4-  0.1+  

011224 608  0.2-  0.1-    040218 493  0.1-  0.3+                            

020110 644  0.1-  0.4-    040218 673  0.4+  0.3-                            

 

K04D00W 0.15I95CV866605407333468312685370442020555267530.87244090217904774 K047E

2004 DW    2.2   K047E 157.5  73.3 268.5  20.6 0.218  39.474  10 19099    55 1 M

PCN      MPC xxxxx J51B8 K042M  0.26 h M-v 003E           37

 

Date/  0h TT  R.A.(2000) Decl.     Delta   r     Daily motion  Mag.  Moon Age

                h  m       。  ,                      ,  / PA 。  V       。

2004 Feb. 25  09 24.55  -03 25.5  46.682 47.609     1.1 / 293  19.0  112  .22

     Mar.  6  09 23.89  -03 21.4  46.727 47.610     1.0 / 297  19.0   24  .99

          16  09 23.29  -03 16.9  46.799 47.612     0.9 / 301  19.1  142  .27

          26  09 22.78  -03 12.3  46.896 47.614     0.8 / 307  19.1   82  .23

     Apr.  5  09 22.38  -03 07.7  47.014 47.615     0.6 / 316  19.1   49 1.00

          15  09 22.09  -03 03.3  47.150 47.617     0.5 / 329  19.1  156  .21

          25  09 21.93  -02 59.2  47.299 47.618     0.4 / 353  19.1   53  .25

     May   5  09 21.90  -02 55.6  47.458 47.620     0.3 /  27  19.1   83 1.00

          15  09 22.00  -02 52.6  47.621 47.622     0.4 /  57  19.2  133  .16

          25  09 22.24  -02 50.3  47.783 47.623     0.6 /  74  19.2   28  .28

     June  4  09 22.59  -02 48.7  47.941 47.625     0.7 /  84  19.2  118  .99



NAKANO

         **** Don't distribute anyone except personal use only ****

                (C) Copyright 2004 OAA/ComputingSection

write mail from CFAD0::NAKANO on 2004-02-24 03:53:20(JST).

 



戻ります。